Regional Weather Roundup
Issued by NWS

Home | Current Version | Previous Version | Graphics & Text | Print | Product List | Glossary On
Versions: 1 2 3 4 5 6 7 8 9 10 11 12 13 14 15 16 17 18 19 20 21 22 23 24 25 26 27 28 29 30 31 32 33 34 35 36 37 38 39 40 41 42 43 44 45 46 47 48 49 50
000
ASUS43 KBIS 221410
RWRND

NORTH DAKOTA REGIONAL WEATHER ROUNDUP
NATIONAL WEATHER SERVICE BISMARCK ND
800 AM CST MON DEC 22 2014

NOTE: "FAIR" INDICATES FEW OR NO CLOUDS BELOW 12,000 FEET WITH NO
SIGNIFICANT WEATHER AND/OR OBSTRUCTIONS TO VISIBILITY.


NDZ001>003-009>011-017-221500-
NORTHWEST NORTH DAKOTA

CITY           SKY/WX    TMP DP  RH WIND       PRES   REMARKS
WILLISTON      CLOUDY    28  23  81 NW20      29.53R WCI  15
MINOT          CLOUDY    28  26  92 N3        29.49R FOG
MINOT AFB      FRZ DRZL  28  28 100 NE5       29.50R
$$

NDZ018>021-031>035-040>046-221500-
SOUTHWEST NORTH DAKOTA

CITY           SKY/WX    TMP DP  RH WIND       PRES   REMARKS
BISMARCK       FOG       28  28 100 CALM      29.47R VSB 1/2
DICKINSON      LGT SNOW  29  25  85 NW20      29.46R FOG     WCI  16
GARRISON         N/A     28  27  96 NE3       29.47R
HETTINGER ARPT CLOUDY    33  30  88 NW25G35   29.47S
$$

NDZ004>008-012>016-024-026-027-054-221500-
NORTHEAST NORTH DAKOTA

CITY           SKY/WX    TMP DP  RH WIND       PRES   REMARKS
GRAND FORKS    DRIZZLE   35  34  96 E10       29.53S FOG
GRND FRKS AFB  CLOUDY    34  34 100 E7        29.53S FOG
DEVILS LAKE    CLOUDY    30  25  80 E7        29.49R
$$

NDZ022-023-025-028>030-036>039-047>053-221500-
SOUTHEAST NORTH DAKOTA

CITY           SKY/WX    TMP DP  RH WIND       PRES   REMARKS
FARGO          CLOUDY    38  36  92 SE8       29.50R FOG
JAMESTOWN      FOG       32  32 100 NE6       29.45R VSB 1/4
$$




USA.gov is the U.S. government's official web portal to all federal, state and local government web resources and services.